TimeCDT,TemperatureF,Dew PointF,Humidity,Sea Level PressureIn,VisibilityMPH,Wind Direction,Wind SpeedMPH,Gust SpeedMPH,PrecipitationIn,Events,Conditions,WindDirDegrees,DateUTC
12:53 AM,45.0,39.9,82,29.65,8.0,NE,6.9,-,N/A,,Clear,40,2013-03-18 05:53:00
1:53 AM,44.1,39.0,82,29.64,8.0,NNE,5.8,-,N/A,,Clear,30,2013-03-18 06:53:00
2:53 AM,42.1,37.9,85,29.64,7.0,Calm,Calm,-,N/A,,Clear,0,2013-03-18 07:53:00
3:53 AM,44.1,39.0,82,29.68,7.0,North,28.8,36.8,N/A,,Clear,10,2013-03-18 08:53:00
4:53 AM,43.0,37.9,82,29.69,7.0,NNE,16.1,21.9,N/A,,Clear,30,2013-03-18 09:53:00
5:48 AM,42.8,37.4,81,29.76,6.0,NNE,24.2,33.4,N/A,,Scattered Clouds,20,2013-03-18 10:48:00
5:53 AM,42.1,37.9,85,29.79,6.0,North,24.2,33.4,N/A,,Scattered Clouds,10,2013-03-18 10:53:00
6:04 AM,42.8,37.4,81,29.79,6.0,NNE,20.7,32.2,N/A,,Mostly Cloudy,30,2013-03-18 11:04:00
6:53 AM,44.1,39.0,82,29.84,6.0,NNE,17.3,-,N/A,,Haze,20,2013-03-18 11:53:00
7:37 AM,41.0,37.4,87,29.85,6.0,North,9.2,-,N/A,,Scattered Clouds,10,2013-03-18 12:37:00
7:53 AM,42.1,39.0,89,29.88,6.0,NNE,11.5,-,N/A,,Scattered Clouds,20,2013-03-18 12:53:00
8:04 AM,42.8,39.2,87,29.88,5.0,North,16.1,23.0,N/A,,Mostly Cloudy,10,2013-03-18 13:04:00
8:53 AM,43.0,39.0,86,29.93,4.0,North,13.8,24.2,N/A,,Overcast,350,2013-03-18 13:53:00
9:49 AM,46.4,39.2,76,29.94,6.0,North,20.7,-,N/A,,Haze,360,2013-03-18 14:49:00
9:53 AM,46.9,39.0,74,29.95,6.0,North,18.4,-,N/A,,Haze,360,2013-03-18 14:53:00
10:53 AM,52.0,39.0,61,29.96,10.0,North,17.3,-,N/A,,Clear,360,2013-03-18 15:53:00
11:53 AM,57.0,37.9,49,29.98,10.0,North,17.3,21.9,N/A,,Clear,10,2013-03-18 16:53:00
12:53 PM,59.0,37.0,44,29.98,10.0,North,16.1,23.0,N/A,,Clear,350,2013-03-18 17:53:00
1:53 PM,62.1,37.0,39,29.97,10.0,North,17.3,-,N/A,,Clear,360,2013-03-18 18:53:00
2:53 PM,63.0,36.0,37,29.96,10.0,North,10.4,18.4,N/A,,Clear,10,2013-03-18 19:53:00
3:53 PM,64.0,32.0,30,29.94,10.0,NNE,11.5,21.9,N/A,,Clear,20,2013-03-18 20:53:00
4:53 PM,64.0,30.0,28,29.94,10.0,Variable,5.8,-,N/A,,Clear,0,2013-03-18 21:53:00
5:53 PM,63.0,30.0,29,29.97,10.0,North,11.5,-,N/A,,Clear,10,2013-03-18 22:53:00
6:53 PM,61.0,28.9,30,29.98,10.0,NNE,9.2,-,N/A,,Clear,30,2013-03-18 23:53:00
7:53 PM,55.0,30.9,40,30.00,10.0,NE,6.9,-,N/A,,Clear,50,2013-03-19 00:53:00
8:53 PM,51.1,30.0,44,30.01,10.0,NE,6.9,-,N/A,,Clear,50,2013-03-19 01:53:00
9:53 PM,50.0,28.9,44,30.01,10.0,NE,8.1,-,N/A,,Clear,50,2013-03-19 02:53:00
10:53 PM,48.9,28.0,44,30.00,10.0,NE,9.2,-,N/A,,Clear,40,2013-03-19 03:53:00
11:53 PM,48.0,27.0,44,30.00,10.0,NE,4.6,-,N/A,,Clear,50,2013-03-19 04:53:00